Погода в Исилькуле

Погода в Исилькуле : погода сейчас, прогноз погоды и архив. Всё, что Вы хотите узнать о погоде в Исилькуле!

Хотите узнать прогноз погоды в Исилькуле? Тогда Вам сюда: Погода в Исилькуле

Поиск расширенной информации на нашем сайте:

Другие новости

Новости СМИ2

Главная страница сайта

Новости сайта

03.07.2017

Напоминаем, что на нашем специализированном сайте Метеоцентр.Азия вы можете получить высокодетализированные автоматические прогнозы погоды по пунктам России, СНГ и мира в авиационном формате (включающие направление и скорость ветра, видимость, явления погоды, количество и форму облачности, нижнюю и верхнюю границу облачности).

Рекомендуем: Деньги в долг срочно дам деньги в долг.

Погода в Исилькуле - сегодня

Время (UTC), дата Ветер
(°,м/с) 
Видим.   Явления Облачность Т
(°С)
Тd
(°С)
f(%) Тe
(°С)
Pmin
(гПа)
dP
(гПа)
Po
(мм)
O2
(г/м3)
Тmin Tmax R s Состояние
почвы
15 10.08.18 240 (ЮЗ) 20000 м  {ливн. осадки}  8/3 600 м кучево-дожд., верхняя 
[Cb calv|Ci fib]
+15.9 +14.6 92 +25  1001.7  0.3  740  279    +21.8  18     
21 10.08.18 300 (СЗ) 10 км  {ливн. осадки}  8/8 600 м кучево-дожд. 
[Cb calv]
+14.1 +13 93 +20  1001.3  -0.7  740  281           
03 11.08.18 270 (З) 20000 м  {морось}  8/5 600 м средняя, верхняя 
[Sc|Ac trans|Ci fib]
+13.8 +11.7 87 +18  1000.1  -0.9  739  281  +11.9    0.3     
15 11.08.18 330 (СЗ) 8-13{14}  20000 м  {ливн. осадки}  10/9 600 м кучево-дожд., средняя 
[Cb calv|As op]
+12.4 +9.8 84 +12  997.3  1.6  737  282    +18.7     
03 12.08.18 330 (СЗ) 9-14{14}  20000 м    9/9 600 м кучево-дожд. 
[Cb calv]
+10.9 +7 77 +9  1002.4  1.8  741  286  +10.1    0.5     
15 12.08.18 340 (С) 1{10}  20000 м    3/0 верхняя 
[Ci fib]
+10.8 +7.4 79 +12  1010.4  1.7  747  288    +17.3       
21 12.08.18 240 (ЮЗ) 10 км    3/0 средняя, верхняя 
[Ac trans|Ci fib]
+6.3 +5.9 97 +7  1012.3  0.6  748  294           
03 13.08.18 230 (ЮЗ) 20000 м    1/0 верхняя 
[Ci fib]
+14.9 +8.9 67 +15  1013.8  0.9  749  285  +5.2         
09 13.08.18 300 (СЗ) 20000 м    8/1 600 м верхняя 
[Cu hum|Ci fib]
+22.4 +11.5 50 +26  1013.9  0.1  750  277           
15 13.08.18 180 (Ю) 20000 м    8/6 600 м средняя 
[Sc|Ac trans]
+19.8 +13.6 67 +27  1014.4  0.3  750  279    +23.4       
21 13.08.18 200 (Ю) 10 км    ясно 
+15.6 +11.9 79 +20  1015.3  0.4  750  284           
03 14.08.18 180 (Ю) 20000 м    3/0 средняя, верхняя 
[Ac trans|Ci fib]
+19.4 +12.2 63 +24  1015.8  0.3  751  280  +14.6         
09 14.08.18 190 (Ю) 20000 м    ясно 
+27.5 +13.3 42 +33  1014.3  -0.8  750  272           
15 14.08.18 150 (ЮВ) 20000 м    1/0 верхняя 
[Ci fib]
+22.9 +13.7 56 +29  1012.7  -0.7  749  276    +28.4       
21 14.08.18 170 (Ю) 10 км  зарница  3/3 600 м кучево-дожд. 
[Cb calv]
+17.6 +10.6 64 +20  1012.5  -0.8  748  281           
03 15.08.18 150 (ЮВ) 20000 м    8/3 600 м кучево-дожд., верхняя 
[Cb calv|Ci fib]
+18.8 +11.8 64 +23  1010.9  -0.8  747  279  +14.7         
09 15.08.18 160 (Ю) 20000 м    8/0 средняя, верхняя 
[Ac trans|Ci fib]
+28 +12 37 +32  1008.4  -1.1  746  270           
15 15.08.18 140 (ЮВ) 20000 м    9/8 600 м кучево-дожд., средняя 
[Cb calv|Ac trans]
+23.6 +13.7 54 +30  1006.5  -0.8  744  273    +28.4       
21 15.08.18 280 (З) 10 км    8/0 средняя, верхняя 
[Ac trans|Ci fib]
+17.4 +14.9 85 +27  1006.5  -0.3  744  279           
03 16.08.18 270 (З) 20000 м  {туман}  9/6 600 м кучево-дожд., верхняя 
[Cb calv|Ci fib]
+16.1 +13.8 86 +23  1008.6  0.8  745  281  +12.8         
09 16.08.18 290 (З) 20000 м    4/3 1000 м средняя, верхняя 
[Cu med, cong|Ac trans|Ci fib]
+23.6 +14 55 +31  1009.1  0.5  746  274           
15 16.08.18 330 (СЗ) 20000 м    3/1 600 м кучево-дожд., верхняя 
[Cb calv|Ci fib]
+16.9 +13.7 81 +25  1010.3  0.6  747  281    +24.3       
21 16.08.18 340 (С) 10 км    8/0 средняя, верхняя 
[Ac trans|Ci fib]
+14.6 +13.9 96 +22  1011.1  0.1  747  283           
03 17.08.18 320 (СЗ) 20000 м    8/4 600 м верхняя 
[Cu med, cong|Ci fib]
+17.2 +14.4 84 +26  1011.9  0.8  748  281  +12.4         
09 17.08.18 230 (ЮЗ) 20000 м    8/3 600 м средняя, верхняя 
[Cu hum|Ac trans|Ci fib]
+24.1 +13.1 50 +30  1010  -1  747  274           
Время (UTC), дата Ветер
(°,м/с) 
Видим.   Явления Облачность Т
(°С)
Тd
(°С)
f(%) Тe
(°С)
Pmin
(гПа)
dP
(гПа)
Po
(мм)
O2
(г/м3)
Тmin Tmax R s Состояние
почвы

Для получения пояснительной информации подведите курсор к названию столбца.

ПОГОДА в Исилькуле - архив

Всё, что Вы хотите узнать о погоде в Исилькуле - удобно и подробно!

Выберите нужную дату (начиная с 1 января 2015* года) и нажмите кнопку "Найти".
Будут отображены архивные сводки погоды по пункту Исилькуль, начиная с указанной даты.


Отображать данные в формате CSV (для использования в таблицах Excel)


Внимание! Наш архив погоды предназначен исключительно для личного некоммерческого использования в познавательных целях. Если Вам необходимы официальные справки о состоянии погоды (для производственных, юридических, коммерческих и т.п. целей), обращайтесь в органы Росгидромета.

*Примечание: данная дата относится к архиву по метеостанциям СССР (Россия, СНГ, Балтия).
Архив по метеостанциям Зарубежной Европы и Азии (кроме Китая) хранится 10 дней, по другим регионам земного шара (Китай, Африка, Америка, Австралия, Океания) - 1 день.

Исилькуль - район местоположения метеостанции


Название, широта, долгота, высота метеостанции:
Исилькуль 54.9°ш. 71.2°д. 125 м над ур. моря [Российская Федерация]

Дополнительная информация

В oтличие oт бoльшинства пoгoдных сайтoв мы публикуем пoдрoбную метеoинфoрмацию в детальнoм прoфессиoнальнoм фoрмате.

Характеристики температуры и влажнoсти вoздуха измеряются на высoте 2 м в тени вдали oт зданий и деревьев.
Скoрoсть ветра измеряется на высoте 10 м (на урoвне рoста челoвека скoрoсть ветра ниже в 1.5-2 раза). Если метеoстанция нахoдится в гoрoде или в лесу, тo скoрoсть ветра занижена на 2-4 м/с пo сравнению с oткрытым местoм. Скoрoсть ветра над акватoриями крупных рек и oзёр, а также на вершинах хoлмoв на 2-5 м/с выше, чем в oбычных услoвиях.
Атмoсфернoе давление в разных тoчках местнoсти мoжет значительнo oтличаться oт давления на метеoстанции, в зависимoсти oт услoвий рельефа (при пoдъёме на 10 м давление пoнижается примернo на 1 мм рт.ст.).